Total_Precipitation_Accumulation
0.10 0.17 0.42 0.47 0.45 0.45 0.41 0.40 0.39 0.38 0.37 0.40 0.38 0.37 0.39 0.37 0.32 0.24 0.25 0.28 0.31 0.38 0.45 0.48 0.52 0.54 0.51 0.49 0.45 0.27 0.17 0.13 0.11 0.10 0.11 0.16 0.19 0.19 0.15 0.15 0.17 0.17 0.20
0.10 0.17 0.39 0.49 0.53 0.52 0.49 0.45 0.41 0.35 0.37 0.41 0.44 0.46 0.46 0.42 0.34 0.30 0.31 0.31 0.37 0.45 0.47 0.48 0.41 0.37 0.35 0.34 0.27 0.15 0.09 0.05 0.04 0.03 0.03 0.05 0.10 0.15 0.14 0.13 0.14 0.18 0.21
0.12 0.21 0.39 0.51 0.59 0.58 0.57 0.51 0.42 0.35 0.36 0.40 0.46 0.52 0.49 0.44 0.41 0.37 0.37 0.37 0.42 0.47 0.43 0.38 0.32 0.25 0.20 0.18 0.14 0.09 0.05 0.03 0.03 0.02 0.03 0.06 0.08 0.13 0.15 0.14 0.16 0.19 0.19
0.16 0.25 0.39 0.56 0.64 0.65 0.58 0.54 0.47 0.42 0.41 0.44 0.45 0.50 0.48 0.44 0.43 0.38 0.37 0.39 0.40 0.38 0.32 0.27 0.23 0.19 0.16 0.12 0.10 0.07 0.04 0.03 0.02 0.02 0.04 0.07 0.08 0.16 0.20 0.19 0.19 0.19 0.18
0.22 0.32 0.47 0.63 0.72 0.74 0.67 0.64 0.57 0.49 0.49 0.51 0.51 0.51 0.51 0.49 0.46 0.44 0.42 0.41 0.36 0.28 0.25 0.23 0.19 0.17 0.14 0.12 0.10 0.08 0.06 0.05 0.02 0.03 0.05 0.08 0.10 0.21 0.22 0.21 0.22 0.23 0.23
0.35 0.50 0.60 0.70 0.79 0.81 0.79 0.76 0.73 0.64 0.56 0.60 0.59 0.57 0.59 0.54 0.50 0.52 0.47 0.38 0.30 0.25 0.21 0.20 0.19 0.17 0.14 0.11 0.10 0.10 0.09 0.05 0.03 0.03 0.06 0.09 0.14 0.27 0.25 0.23 0.25 0.27 0.30
0.55 0.69 0.77 0.84 0.92 0.88 0.86 0.85 0.83 0.80 0.74 0.71 0.68 0.65 0.66 0.62 0.56 0.53 0.48 0.35 0.28 0.25 0.23 0.22 0.21 0.19 0.16 0.11 0.08 0.09 0.09 0.05 0.03 0.04 0.06 0.10 0.15 0.26 0.24 0.21 0.24 0.28 0.30
0.79 0.92 1.01 1.09 1.14 1.04 0.96 0.89 0.89 0.94 0.94 0.90 0.85 0.79 0.73 0.70 0.64 0.53 0.46 0.34 0.30 0.29 0.26 0.25 0.25 0.21 0.19 0.14 0.08 0.07 0.06 0.03 0.02 0.04 0.06 0.09 0.13 0.23 0.22 0.19 0.19 0.21 0.23
1.19 1.26 1.35 1.34 1.28 1.23 1.13 1.04 0.99 1.00 1.02 1.01 0.94 0.87 0.77 0.73 0.67 0.54 0.44 0.40 0.34 0.33 0.28 0.25 0.25 0.23 0.22 0.18 0.10 0.08 0.05 0.02 0.02 0.05 0.07 0.09 0.16 0.28 0.25 0.21 0.20 0.20 0.21
1.64 1.67 1.71 1.68 1.53 1.38 1.26 1.15 1.08 1.03 1.06 1.07 0.97 0.78 0.65 0.65 0.65 0.56 0.39 0.40 0.37 0.34 0.30 0.27 0.27 0.25 0.19 0.18 0.12 0.08 0.05 0.03 0.03 0.06 0.08 0.10 0.16 0.27 0.27 0.23 0.24 0.25 0.23
2.09 2.03 1.93 1.89 1.82 1.63 1.50 1.29 1.19 1.12 1.12 1.07 0.92 0.76 0.67 0.69 0.65 0.56 0.35 0.29 0.32 0.30 0.31 0.29 0.27 0.26 0.19 0.14 0.12 0.08 0.06 0.05 0.05 0.08 0.08 0.09 0.16 0.21 0.23 0.21 0.21 0.23 0.25
2.23 2.25 2.18 2.08 2.02 1.91 1.71 1.57 1.43 1.24 1.14 1.07 0.90 0.77 0.73 0.70 0.66 0.55 0.41 0.29 0.28 0.27 0.29 0.31 0.29 0.26 0.21 0.14 0.14 0.10 0.07 0.06 0.06 0.06 0.07 0.08 0.14 0.19 0.19 0.20 0.20 0.19 0.20
2.47 2.58 2.55 2.42 2.37 2.36 2.12 1.86 1.71 1.44 1.22 1.15 1.00 0.90 0.83 0.82 0.75 0.67 0.56 0.42 0.36 0.27 0.26 0.30 0.28 0.22 0.20 0.15 0.15 0.13 0.09 0.08 0.08 0.07 0.08 0.08 0.12 0.18 0.20 0.21 0.21 0.20 0.21
2.63 2.79 2.96 2.86 2.72 2.64 2.39 2.13 1.88 1.64 1.36 1.17 1.14 1.05 0.99 0.91 0.78 0.67 0.60 0.49 0.43 0.34 0.30 0.34 0.30 0.24 0.26 0.20 0.16 0.17 0.15 0.10 0.09 0.09 0.09 0.08 0.10 0.15 0.19 0.22 0.22 0.23 0.24
2.51 2.74 3.06 3.01 2.86 2.70 2.46 2.23 1.92 1.71 1.51 1.26 1.18 1.17 1.08 1.00 0.88 0.76 0.70 0.62 0.52 0.43 0.36 0.37 0.37 0.32 0.32 0.30 0.23 0.19 0.19 0.14 0.11 0.10 0.09 0.09 0.10 0.13 0.15 0.19 0.21 0.24 0.30
2.52 2.65 2.94 3.01 2.82 2.73 2.55 2.25 1.97 1.74 1.61 1.51 1.28 1.14 1.10 1.01 0.95 0.87 0.74 0.63 0.57 0.48 0.39 0.34 0.34 0.34 0.33 0.33 0.30 0.25 0.24 0.20 0.15 0.14 0.13 0.12 0.12 0.13 0.14 0.15 0.20 0.29 0.39
2.55 2.70 2.77 2.94 2.97 2.74 2.62 2.34 2.05 1.98 1.78 1.61 1.40 1.21 1.15 1.05 0.97 0.95 0.81 0.64 0.56 0.54 0.48 0.43 0.42 0.39 0.36 0.32 0.29 0.28 0.28 0.24 0.19 0.16 0.15 0.14 0.12 0.13 0.14 0.13 0.15 0.24 0.36
2.52 2.70 2.76 2.78 2.90 2.87 2.69 2.48 2.11 1.98 1.96 1.73 1.53 1.35 1.21 1.17 1.12 1.05 0.93 0.77 0.73 0.73 0.65 0.55 0.50 0.44 0.38 0.36 0.33 0.33 0.31 0.29 0.23 0.20 0.18 0.16 0.14 0.13 0.15 0.14 0.13 0.17 0.26
2.45 2.64 2.77 2.78 2.79 2.97 2.90 2.68 2.46 2.17 1.97 1.95 1.79 1.51 1.25 1.18 1.17 1.09 0.96 0.91 0.93 0.84 0.75 0.67 0.59 0.54 0.46 0.44 0.42 0.40 0.40 0.38 0.30 0.27 0.25 0.23 0.21 0.19 0.19 0.18 0.16 0.15 0.16
2.50 2.66 2.78 2.77 2.74 3.00 3.17 2.94 2.64 2.41 2.06 1.87 1.83 1.62 1.39 1.29 1.21 1.13 1.02 0.99 1.03 0.96 0.85 0.77 0.70 0.65 0.59 0.56 0.55 0.45 0.42 0.43 0.39 0.31 0.28 0.26 0.25 0.25 0.23 0.21 0.19 0.16 0.16
2.45 2.57 2.71 2.75 2.72 2.74 2.89 2.82 2.54 2.26 2.09 1.85 1.75 1.73 1.58 1.47 1.49 1.34 1.13 1.10 1.11 1.01 0.91 0.88 0.88 0.84 0.76 0.72 0.68 0.53 0.44 0.39 0.37 0.30 0.26 0.25 0.24 0.24 0.24 0.24 0.22 0.19 0.17
2.19 2.46 2.61 2.74 2.82 2.63 2.47 2.58 2.55 2.41 2.21 2.01 1.90 1.85 1.70 1.56 1.51 1.48 1.40 1.31 1.27 1.23 1.15 1.07 1.05 1.02 0.95 0.92 0.86 0.78 0.58 0.44 0.36 0.31 0.27 0.26 0.25 0.25 0.25 0.24 0.23 0.22 0.20
1.88 2.15 2.39 2.56 2.72 2.78 2.67 2.73 2.66 2.52 2.26 1.98 1.77 1.74 1.71 1.64 1.59 1.50 1.49 1.50 1.47 1.40 1.29 1.22 1.19 1.19 1.15 1.07 1.02 1.05 0.81 0.56 0.42 0.37 0.33 0.29 0.27 0.27 0.28 0.28 0.26 0.26 0.24
1.62 1.82 2.02 2.32 2.55 2.69 2.78 2.69 2.52 2.32 2.04 1.76 1.71 1.82 1.83 1.72 1.64 1.57 1.54 1.53 1.56 1.49 1.38 1.38 1.38 1.26 1.28 1.24 1.18 1.08 0.93 0.74 0.66 0.52 0.41 0.39 0.36 0.32 0.33 0.33 0.31 0.29 0.27
1.40 1.61 1.73 1.93 2.26 2.39 2.37 2.37 2.38 2.24 2.03 1.89 1.80 1.76 1.74 1.64 1.55 1.49 1.49 1.52 1.50 1.49 1.44 1.44 1.45 1.44 1.37 1.33 1.27 1.22 1.20 1.05 0.89 0.82 0.64 0.51 0.48 0.44 0.42 0.42 0.42 0.40 0.36
1.16 1.36 1.55 1.60 1.79 2.00 2.01 2.07 2.12 2.00 1.90 1.81 1.68 1.64 1.64 1.57 1.45 1.37 1.33 1.36 1.41 1.42 1.39 1.39 1.47 1.52 1.51 1.40 1.29 1.19 1.16 1.11 0.99 0.97 0.87 0.67 0.60 0.51 0.49 0.46 0.45 0.47 0.51